• In Portugal
  • List of Countries
  • For 7 days
  • Water Temperature
  • Satellite Maps
  • Weather Map
  • Weather Widgets
  • user-avatar
    Login

    Hourly Weather Rychowko

    Today, 22 October, Monday

    Time Temperature Precipitation Wind Pressure Humidity
    00:00 +7°C° 0 mm 4 mps 763 mmHg 84%
    01:00 +6°C° 0 mm 5 mps 763 mmHg 82%
    02:00 +6°C° 0 mm 5 mps 762 mmHg 82%
    03:00 +6°C° 0 mm 5 mps 762 mmHg 83%
    04:00 +6°C° 0 mm 5 mps 762 mmHg 84%
    05:00 +6°C° 0 mm 5 mps 762 mmHg 84%
    06:00 +7°C° 0 mm 5 mps 761 mmHg 83%
    07:00 +6°C° 0 mm 5 mps 761 mmHg 84%
    08:00 +7°C° 0.2 mm 5 mps 761 mmHg 84%
    09:00 +8°C° 0.2 mm 5 mps 761 mmHg 84%
    10:00 +8°C° 0.2 mm 5 mps 761 mmHg 84%
    11:00 +9°C° 0.3 mm 5 mps 761 mmHg 82%
    12:00 +10°C° 0.3 mm 6 mps 761 mmHg 80%
    13:00 +10°C° 0.3 mm 6 mps 762 mmHg 77%
    14:00 +10°C° 0 mm 6 mps 762 mmHg 74%
    15:00 +9°C° 0 mm 6 mps 762 mmHg 71%
    16:00 +9°C° 0 mm 6 mps 762 mmHg 68%
    17:00 +9°C° 0 mm 6 mps 762 mmHg 70%
    18:00 +8°C° 0 mm 5 mps 762 mmHg 72%
    19:00 +7°C° 0 mm 5 mps 762 mmHg 74%
    20:00 +7°C° 0 mm 5 mps 762 mmHg 75%
    21:00 +7°C° 0 mm 5 mps 762 mmHg 76%
    22:00 +7°C° 0 mm 5 mps 762 mmHg 77%
    23:00 +7°C° 0 mm 5 mps 761 mmHg 78%

    Tomorrow, 23 October, Tuesday

    Time Temperature Precipitation Wind Pressure Humidity
    00:00 +5°C° 0 mm 6 mps 761 mmHg 79%
    01:00 +5°C° 0 mm 6 mps 760 mmHg 80%
    02:00 +5°C° 0.2 mm 7 mps 759 mmHg 80%
    03:00 +5°C° 0.2 mm 8 mps 758 mmHg 80%
    04:00 +5°C° 0.2 mm 8 mps 757 mmHg 80%
    05:00 +5°C° 1.2 mm 9 mps 755 mmHg 81%
    06:00 +5°C° 1.2 mm 10 mps 754 mmHg 83%
    07:00 +4°C° 1.2 mm 11 mps 753 mmHg 84%
    08:00 +6°C° 1.6 mm 11 mps 751 mmHg 85%
    09:00 +7°C° 1.6 mm 11 mps 750 mmHg 86%
    10:00 +7°C° 1.6 mm 12 mps 749 mmHg 86%
    11:00 +8°C° 2.4 mm 12 mps 748 mmHg 86%
    12:00 +9°C° 2.4 mm 12 mps 747 mmHg 86%
    13:00 +9°C° 2.4 mm 12 mps 746 mmHg 86%
    14:00 +9°C° 1.1 mm 12 mps 746 mmHg 84%
    15:00 +10°C° 1.1 mm 12 mps 745 mmHg 82%
    16:00 +10°C° 1.1 mm 12 mps 745 mmHg 80%
    17:00 +10°C° 0.9 mm 12 mps 744 mmHg 79%
    18:00 +10°C° 0.9 mm 12 mps 744 mmHg 79%
    19:00 +10°C° 0.9 mm 12 mps 744 mmHg 79%
    20:00 +9°C° 0.6 mm 12 mps 743 mmHg 77%
    21:00 +9°C° 0.6 mm 12 mps 743 mmHg 75%
    22:00 +9°C° 0.6 mm 12 mps 742 mmHg 72%
    23:00 +8°C° 0.2 mm 12 mps 743 mmHg 69%

    Day after tomorrow, 24 October, Wednesday

    Time Temperature Precipitation Wind Pressure Humidity
    00:00 +8°C° 0.2 mm 13 mps 743 mmHg 67%
    01:00 +7°C° 0.2 mm 13 mps 743 mmHg 64%
    02:00 +5°C° 0.2 mm 12 mps 744 mmHg 61%
    03:00 +6°C° 0.2 mm 11 mps 745 mmHg 59%
    04:00 +5°C° 0.2 mm 10 mps 746 mmHg 57%
    05:00 +5°C° 0 mm 10 mps 746 mmHg 55%
    06:00 +5°C° 0 mm 10 mps 747 mmHg 54%
    07:00 +5°C° 0 mm 10 mps 748 mmHg 53%
    08:00 +5°C° 0 mm 10 mps 748 mmHg 50%
    09:00 +6°C° 0 mm 11 mps 749 mmHg 48%
    10:00 +7°C° 0 mm 11 mps 750 mmHg 45%
    11:00 +7°C° 0 mm 11 mps 750 mmHg 44%
    12:00 +7°C° 0 mm 11 mps 751 mmHg 44%
    13:00 +7°C° 0 mm 11 mps 752 mmHg 43%
    14:00 +7°C° 0 mm 10 mps 752 mmHg 46%
    15:00 +7°C° 0 mm 9 mps 752 mmHg 49%
    16:00 +6°C° 0 mm 8 mps 752 mmHg 52%
    17:00 +6°C° 0 mm 7 mps 753 mmHg 55%
    18:00 +7°C° 0 mm 6 mps 753 mmHg 57%
    19:00 +5°C° 0 mm 6 mps 753 mmHg 60%
    20:00 +6°C° 0 mm 5 mps 753 mmHg 64%
    21:00 +6°C° 0 mm 5 mps 753 mmHg 68%
    22:00 +5°C° 0 mm 5 mps 752 mmHg 72%
    23:00 +6°C° 0.2 mm 5 mps 752 mmHg 77%

    25 October, Thursday

    Time Temperature Precipitation Wind Pressure Humidity
    00:00 +6°C° 0.2 mm 5 mps 751 mmHg 81%
    01:00 +7°C° 0.2 mm 5 mps 750 mmHg 86%
    02:00 +8°C° 0.7 mm 7 mps 749 mmHg 87%
    03:00 +9°C° 0.7 mm 8 mps 748 mmHg 88%
    04:00 +9°C° 0.7 mm 10 mps 747 mmHg 90%
    05:00 +9°C° 0.4 mm 10 mps 747 mmHg 86%
    06:00 +9°C° 0.4 mm 11 mps 746 mmHg 83%
    07:00 +9°C° 0.4 mm 11 mps 746 mmHg 79%
    08:00 +9°C° 0.2 mm 11 mps 746 mmHg 77%
    09:00 +9°C° 0.2 mm 10 mps 747 mmHg 75%
    10:00 +8°C° 0.2 mm 10 mps 747 mmHg 74%
    11:00 +9°C° 0.1 mm 10 mps 747 mmHg 71%
    12:00 +9°C° 0.1 mm 10 mps 748 mmHg 69%
    13:00 +9°C° 0.1 mm 10 mps 748 mmHg 67%
    14:00 +9°C° 0 mm 10 mps 748 mmHg 69%
    15:00 +10°C° 0 mm 9 mps 748 mmHg 70%
    16:00 +10°C° 0 mm 9 mps 748 mmHg 71%
    17:00 +9°C° 0 mm 8 mps 749 mmHg 73%
    18:00 +9°C° 0 mm 8 mps 749 mmHg 74%
    19:00 +9°C° 0 mm 7 mps 750 mmHg 76%
    20:00 +8°C° 0 mm 6 mps 750 mmHg 77%
    21:00 +8°C° 0 mm 6 mps 750 mmHg 79%
    22:00 +8°C° 0 mm 5 mps 750 mmHg 80%
    23:00 +8°C° 0.1 mm 5 mps 750 mmHg 81%

    26 October, Friday

    Time Temperature Precipitation Wind Pressure Humidity
    00:00 +8°C° 0.1 mm 4 mps 750 mmHg 82%
    01:00 +7°C° 0.1 mm 4 mps 751 mmHg 83%
    02:00 +7°C° 0.1 mm 4 mps 750 mmHg 83%
    03:00 +7°C° 0.1 mm 4 mps 750 mmHg 84%
    04:00 +7°C° 0.1 mm 4 mps 750 mmHg 84%
    05:00 +7°C° 0.1 mm 4 mps 750 mmHg 86%
    06:00 +7°C° 0.1 mm 4 mps 750 mmHg 88%
    07:00 +6°C° 0.1 mm 4 mps 750 mmHg 89%
    08:00 +7°C° 0 mm 4 mps 750 mmHg 86%
    09:00 +7°C° 0 mm 4 mps 749 mmHg 83%
    10:00 +8°C° 0 mm 5 mps 749 mmHg 79%
    11:00 +9°C° 0.2 mm 5 mps 748 mmHg 79%
    12:00 +9°C° 0.2 mm 5 mps 748 mmHg 78%
    13:00 +10°C° 0.2 mm 6 mps 747 mmHg 78%
    14:00 +10°C° 0.1 mm 6 mps 747 mmHg 79%
    15:00 +10°C° 0.1 mm 5 mps 746 mmHg 79%
    16:00 +10°C° 0.1 mm 5 mps 746 mmHg 80%
    17:00 +10°C° 0.1 mm 5 mps 745 mmHg 81%
    18:00 +10°C° 0.1 mm 6 mps 745 mmHg 82%
    19:00 +10°C° 0.1 mm 6 mps 745 mmHg 83%
    20:00 +9°C° 0 mm 6 mps 745 mmHg 84%
    21:00 +9°C° 0 mm 6 mps 744 mmHg 84%
    22:00 +8°C° 0 mm 6 mps 744 mmHg 85%
    23:00 +8°C° 0 mm 6 mps 744 mmHg 85%

    27 October, Saturday

    Time Temperature Precipitation Wind Pressure Humidity
    00:00 +8°C° 0 mm 6 mps 744 mmHg 86%
    01:00 +8°C° 0 mm 6 mps 743 mmHg 86%
    02:00 +8°C° 0.1 mm 6 mps 743 mmHg 86%
    03:00 +7°C° 0.1 mm 6 mps 743 mmHg 86%
    04:00 +7°C° 0.1 mm 6 mps 743 mmHg 85%
    05:00 +7°C° 0 mm 6 mps 743 mmHg 85%
    06:00 +6°C° 0 mm 5 mps 743 mmHg 85%
    07:00 +6°C° 0 mm 5 mps 743 mmHg 85%
    08:00 +6°C° 0 mm 5 mps 744 mmHg 81%
    09:00 +7°C° 0 mm 5 mps 744 mmHg 76%
    10:00 +7°C° 0 mm 6 mps 744 mmHg 72%
    11:00 +8°C° 0 mm 5 mps 744 mmHg 68%
    12:00 +8°C° 0 mm 5 mps 744 mmHg 64%
    13:00 +9°C° 0 mm 5 mps 744 mmHg 60%
    14:00 +8°C° 0 mm 4 mps 744 mmHg 62%
    15:00 +8°C° 0 mm 4 mps 744 mmHg 65%
    16:00 +8°C° 0 mm 3 mps 745 mmHg 67%
    17:00 +8°C° 0 mm 3 mps 745 mmHg 68%
    18:00 +8°C° 0 mm 2 mps 745 mmHg 69%
    19:00 +7°C° 0 mm 2 mps 745 mmHg 70%
    20:00 +7°C° 0 mm 2 mps 745 mmHg 70%
    21:00 +8°C° 0 mm 1 mps 745 mmHg 71%
    22:00 +8°C° 0 mm 1 mps 745 mmHg 72%
    23:00 +8°C° 0 mm 1 mps 745 mmHg 72%

    28 October, Sunday

    Time Temperature Precipitation Wind Pressure Humidity
    00:00 +8°C° 0 mm 1 mps 745 mmHg 73%
    01:00 +7°C° 0 mm 1 mps 745 mmHg 73%
    02:00 +7°C° 0 mm 1 mps 745 mmHg 74%
    03:00 +7°C° 0 mm 1 mps 745 mmHg 75%
    04:00 +7°C° 0 mm 1 mps 745 mmHg 77%
    05:00 +7°C° 0.1 mm 1 mps 745 mmHg 78%
    06:00 +7°C° 0.1 mm 1 mps 745 mmHg 79%
    07:00 +7°C° 0.1 mm 1 mps 745 mmHg 80%
    08:00 +7°C° 0.2 mm 1 mps 745 mmHg 78%
    09:00 +8°C° 0.2 mm 1 mps 745 mmHg 77%
    10:00 +7°C° 0.2 mm 2 mps 745 mmHg 75%
    11:00 +7°C° 0.5 mm 2 mps 745 mmHg 76%
    12:00 +7°C° 0.5 mm 2 mps 746 mmHg 78%
    13:00 +7°C° 0.5 mm 3 mps 746 mmHg 79%
    14:00 +7°C° 0.8 mm 3 mps 746 mmHg 81%
    15:00 +7°C° 0.8 mm 3 mps 746 mmHg 83%
    16:00 +5°C° 0.8 mm 3 mps 746 mmHg 86%
    17:00 +5°C° 0.4 mm 3 mps 747 mmHg 86%
    18:00 +5°C° 0.4 mm 3 mps 747 mmHg 86%
    19:00 +5°C° 0.4 mm 3 mps 747 mmHg 86%
    20:00 +5°C° 0.5 mm 3 mps 748 mmHg 84%
    21:00 +5°C° 0.5 mm 4 mps 748 mmHg 82%
    22:00 +5°C° 0.5 mm 5 mps 749 mmHg 80%
    23:00 +3°C° 0.4 mm 5 mps 749 mmHg 81%
    Show more